Flag for Canada Weather past 2 weeks in Bathurst, New Brunswick, Canada

Now
41 °F

Light rain. Fog.


Feels Like: 37 °F
Forecast: 39 / 44 °F
Wind: 6 mph from North

Location: Bathurst Airport

Current Time: Oct 25, 2014 at 4:50:40 AM

Latest Report: Oct 25, 2014 at 4:00 AM


Visibility: 3 mi

Pressure: 29.61 "Hg

Humidity: 93%

Dew point: 39 °F

Location of BathurstLocation

Historic Weather in Bathurst — Graph

°F

Bathurst temperature yesterday

Maximum temperature yesterday: 46 °F (at 6:00 AM)
Minimum temperature yesterday: 41 °F (at 12:00 PM)
Average temperature yesterday: 43 °F

Past Weeks' High & Low Weather Summary

 TemperatureHumidityPressure
High70 °F (Oct 15, 10:00 AM)100% (Oct 12, 3:00 AM)30.48 "Hg (Oct 12, 3:00 AM)
Low30 °F (Oct 12, 3:00 AM)26% (Oct 13, 5:00 PM)29.38 "Hg (Oct 19, 4:00 AM)
Average47 °F78%29.95 "Hg
* Reported Oct 10 3:00 AM — Oct 25 3:00 AM, Bathurst, Weather by CustomWeather, © 2014

Note: Actual official high and low records may vary slightly from our data, if they occured in-between our weather recording intervals... More about our weather records

Advertising

Bathurst weather history for previous 24 hours

 ConditionsComfort  
Time TempWeatherWind HumidityBarometerVisibility
3:00 AM
Oct 25
41 °FLight rain. Fog.8 mph93%29.62 "Hg3 mi
2:00 AM41 °FLight rain. Fog.6 mph93%29.62 "Hg3 mi
1:00 AM41 °FLight rain. Fog.9 mph93%29.63 "Hg3 mi
12:00 AM41 °FLight rain. Fog.6 mph93%29.64 "Hg3 mi
11:00 PM
Oct 24
41 °FLight rain. Fog.6 mph93%29.65 "Hg3 mi
10:00 PM41 °FLight rain. Fog.7 mph93%29.67 "Hg5 mi
9:00 PM41 °FLight rain. Fog.7 mph93%29.67 "Hg5 mi
8:00 PM41 °FLight rain. Fog.3 mph93%29.68 "Hg5 mi
7:00 PM41 °FLight rain. Fog.7 mph93%29.69 "Hg5 mi
6:00 PM41 °FLight rain. Fog.2 mph93%29.70 "Hg5 mi
5:00 PM41 °FLight rain. Fog.2 mph93%29.71 "Hg5 mi
4:00 PM41 °FLight rain. Fog.9 mph87%29.73 "Hg6 mi
3:00 PM41 °FLight rain. Fog.5 mph93%29.75 "Hg4 mi
2:00 PM43 °FRain. Fog.5 mph81%29.77 "Hg4 mi
1:00 PM43 °FLight rain. Overcast.No wind76%29.79 "Hg12 mi
12:00 PM41 °FLight rain. Overcast.5 mph81%29.82 "Hg9 mi
11:00 AM43 °FLight rain. Overcast.6 mph71%29.86 "Hg8 mi
10:00 AM43 °FLight rain. Overcast.9 mph66%29.85 "Hg9 mi
9:00 AM46 °FLight rain. Broken clouds.12 mph50%29.87 "Hg15 mi
8:00 AM45 °FMostly cloudy.15 mph53%29.88 "Hg15 mi
7:00 AM46 °FOvercast.10 mph57%29.89 "Hg15 mi
6:00 AM46 °FOvercast.9 mph57%29.90 "Hg15 mi
5:00 AM45 °FOvercast.9 mph66%29.92 "Hg15 mi
4:00 AM45 °FOvercast.10 mph66%29.94 "Hg15 mi
Weather by CustomWeather, © 2014

See weather overviewHow to use our weather pages